Lexington Weather

Lexington, Massachusetts, USA

45°F
10/26/2020 5:18am 
  • Lexington Conditions: Overcast
  • Temperature: 45.3°F / 7.4°CWarmer 0.2°F than last hour.
  • Dew Point: 40.1°FIncreased 0.7°Fsince last hour.
  • Relative Humidity: 82%Increased 2.0% since last hour.
  • Wind: Calm, 10-min avg: Calm, gust: 2 mph
  • Barometer: 30.28 in Steady
  • Visibility: 10 miles
  • Rain Today: 0.00 in
  •   

Regional Weather Roundup
for Boston / Norton, MA

        
000
ASUS41 KBOX 240005
RWRBOX

REGIONAL WEATHER ROUNDUP
NATIONAL WEATHER SERVICE BOSTON/NORTON MA
800 PM EDT FRI OCT 23 2020

NOTE:  "FAIR" INDICATES FEW OR NO CLOUDS BELOW 12,000 FEET WITH NO 
SIGNIFICANT WEATHER AND/OR OBSTRUCTIONS TO VISIBILITY.

MAZALL-240100-
EASTERN MASSACHUSETTS
  
CITY           SKY/WX    TMP DP  RH WIND       PRES   REMARKS
BOSTON         MOCLDY    57  54  89 E8        30.12F                  
6HR MIN TEMP:  56; 6HR MAX TEMP:  61;                                

BEVERLY        MOCLDY    56  53  90 SE6       30.12F                  
LAWRENCE       MOCLDY    57  52  83 SE3       30.14S                  
BEDFORD        PTCLDY    57  53  86 SE7       30.11S                  
BLUE HILL        N/A     54  52  93 SE12      30.10F                  
NORWOOD        CLEAR     56  51  84 CALM      30.11F                  
MARSHFIELD     PTCLDY    59  57  94 SE7       30.12F                  
PLYMOUTH       MOCLDY    56  54  93 CALM      30.12F                  
TAUNTON        CLEAR     56  53  90 SE6       30.11F                  
NEW BEDFORD    CLEAR     59  55  87 SE3       30.11F                  
$$

MAZALL-240100-
CAPE COD AND THE ISLANDS
  
CITY           SKY/WX    TMP DP  RH WIND       PRES   REMARKS
FALMOUTH       MOCLDY    55  54  94 SE10      30.12F                  
HYANNIS        CLOUDY    57  54  89 E3        30.10F                  
CHATHAM        CLOUDY    58  54  86 E5        30.13F                  
PROVINCETOWN   CLEAR     56  53  90 SE3       30.13F                  
NANTUCKET      CLOUDY   N/A N/A N/A E7        30.11F                  
MARTHAS VNYRD  CLEAR     55  54  96 E5        30.11F                  
$$
 
MAZALL-240100-
CENTRAL AND WESTERN MASSACHUSETTS
  
CITY           SKY/WX    TMP DP  RH WIND       PRES   REMARKS
WORCESTER      PTCLDY    59  56  89 S8        30.11S                  
6HR MIN TEMP:  59; 6HR MAX TEMP:  66;                                

FITCHBURG      CLOUDY    61  54  77 SE10      30.11S                  
ORANGE         CLOUDY    64  59  83 S6        30.10S                  
SPRINGFIELD    CLOUDY    64  58  81 SW7       30.08S                  
WESTFIELD      CLOUDY    64  60  87 S9        30.08F                  
NORTH ADAMS    PTCLDY    64  56  75 VRB3      30.05S                  
PITTSFIELD     CLEAR     62  56  80 S12G18    30.05F                  
$$
 
RIZALL-240100-
RHODE ISLAND
  
CITY           SKY/WX    TMP DP  RH WIND       PRES   REMARKS
PROVIDENCE     CLEAR     58  54  86 S3        30.11F                  
6HR MIN TEMP:  58; 6HR MAX TEMP:  68;                                

NEWPORT        PTCLDY    56  54  93 S5        30.12S                  
BLOCK ISLAND   CLEAR     56  54  93 SE5       30.12F                  
SMITHFIELD     CLEAR     57  57 100 SE3         N/A                   
WESTERLY       CLEAR     55  52  89 E3        30.11F                  
$$
 
CTZALL-240100-
CONNECTICUT
  
CITY           SKY/WX    TMP DP  RH WIND       PRES   REMARKS
BRADLEY INTL   CLOUDY    63  58  83 SW8       30.09S                  
6HR MIN TEMP:  63; 6HR MAX TEMP:  69;                                

HARTFORD       CLOUDY    63  57  81 VRB7      30.10S                  
BRIDGEPORT     CLOUDY    63  60  90 S5        30.09F                  
DANBURY        CLOUDY    62  60  93 SE5         N/A                   
GROTON         CLOUDY    58  56  93 CALM      30.10F                  
NEW HAVEN      CLOUDY    63  60  90 SE7       30.10S                  
CHESTER        CLOUDY    59  59 100 S5        30.11F                  
MERIDEN        CLOUDY    60  58  92 S5        30.10F                  
WILLIMANTIC    CLEAR     56  54  93 CALM      30.11S                  
OXFORD         CLOUDY    59  59 100 SE6       30.11S FOG              
$$

MEZ002-015-021-024-NHZ003-005-008-011-012-014-VTZ005-008-240100-
NORTHERN NEW ENGLAND
  
CITY           SKY/WX    TMP DP  RH WIND       PRES   REMARKS
PORTLAND ME    CLOUDY    55  54  96 SE5       30.14F                  
6HR MIN TEMP:  54; 6HR MAX TEMP:  57;                                

BANGOR ME      CLOUDY    55  51  86 S10       30.15F                  
CONCORD NH     CLOUDY    58  50  75 VRB3      30.10F                  
MANCHESTER NH  CLOUDY    59  51  75 SE6       30.10S                  
NASHUA NH      CLOUDY    59  55  87 SE7       30.12S                  
PORTSMOUTH NH  CLOUDY    57  53  86 E6        30.11F                  
JAFFREY NH     CLOUDY    61  56  83 CALM      30.10F                  
KEENE NH       CLOUDY    65  50  58 S6        30.07F                  
BURLINGTON VT  MOCLDY    67  57  70 SE7       29.93S                  
MT. WASHINGTON LGT RAIN  43  43 100 S40G49      N/A  VSB 0   WCI  31  
$$

NYZ052-076-240100-
EASTERN NEW YORK
  
CITY           SKY/WX    TMP DP  RH WIND       PRES   REMARKS
ALBANY         PTCLDY    63  58  83 SE15G22   30.02R                  
6HR MIN TEMP:  63; 6HR MAX TEMP:  72;                                

NEW YORK CITY  CLOUDY    64  58  80 S5        30.08F                  
6HR MIN TEMP:  64; 6HR MAX TEMP:  71;                                

$$
 
ANZALL-240100-
MARINE OBSERVATIONS
  
STATION/POSITION TIME  TEMP    WIND        PRES    VSBY  WAVE
                       AIR SEA DIR/SP/G                  HT/PER
                 (UTC) (F)     (DEG/KT/KT) (MB)    (MI)  (FT/S)
BOSTON BUOY      2350   58 59  120/ 14/ 16 1018.7F         4/11
BUZZARDS BAY     2300          120/ 10/ 11 1021.0F
NANTUCKET SOUND  2350      62  100/  6/ 10   N/A           1/ 4
MASS BAY-STELLWA 2304   58 58  130/ 10/ 12 1019.5F  1 7/8  5/11
ISLE OF SHOALS   2300   57     120/ 10/ 11 1019.9F
S OF BLOCK IS    2326      63                N/A           6/11
$$

......................KEY.........................
  SKY/WX - SKY CONDITION/PRESENT WEATHER
  TMP    - TEMPERATURE IN FAHRENHEIT
  DWPT   - DEWPOINT IN FAHRENHEIT
  RH     - RELATIVE HUMIDITY IN PERCENT
  WIND   - DIRECTION AND SPEED IN MPH
  PRES   - MEAN SEA LEVEL PRESSURE IN INCHES OF HG
  WCI    - WIND CHILL INDEX
  VSB    - VISIBILITY IN MILES
  HX     - HEAT INDEX
  TC     - TEMPERATURE IN CELSIUS
  VRB    - VARIABLE WIND DIRECTION
  N/A    - NOT AVAILABLE
  
      

Other recent Regional Weather Roundups

Mon Oct 26, 5:04am

Mon Oct 26, 4:04am

Mon Oct 26, 3:04am

Mon Oct 26, 2:04am

Mon Oct 26, 1:04am

Mon Oct 26, 12:04am

Sun Oct 25, 11:05pm

Sun Oct 25, 10:04pm

Sun Oct 25, 9:04pm

Sun Oct 25, 8:04pm

Sun Oct 25, 7:04pm

Sun Oct 25, 6:04pm

Sun Oct 25, 5:04pm

Sun Oct 25, 4:05pm

Sun Oct 25, 3:04pm

Sun Oct 25, 2:04pm

Sun Oct 25, 1:04pm

Sun Oct 25, 12:04pm

Sun Oct 25, 11:04am

Sun Oct 25, 10:04am

Sun Oct 25, 9:04am

Sun Oct 25, 8:04am

Sun Oct 25, 7:04am

Sun Oct 25, 6:04am

Sun Oct 25, 5:04am

Sun Oct 25, 4:04am

Sun Oct 25, 3:04am

Sun Oct 25, 2:04am

Sun Oct 25, 1:05am

Sun Oct 25, 12:04am

Sat Oct 24, 11:04pm

Sat Oct 24, 10:04pm

Sat Oct 24, 9:04pm

Sat Oct 24, 8:04pm

Sat Oct 24, 7:04pm

Sat Oct 24, 6:04pm

Sat Oct 24, 5:05pm

Sat Oct 24, 4:04pm

Sat Oct 24, 3:04pm

Sat Oct 24, 2:04pm

Sat Oct 24, 1:05pm

Sat Oct 24, 12:04pm

Sat Oct 24, 11:05am

Sat Oct 24, 10:05am

Sat Oct 24, 9:04am

Sat Oct 24, 8:04am

Sat Oct 24, 7:04am

Sat Oct 24, 6:04am

Sat Oct 24, 5:04am

Sat Oct 24, 4:04am

Sat Oct 24, 3:04am

Sat Oct 24, 2:04am

Sat Oct 24, 1:05am

Sat Oct 24, 12:04am

Fri Oct 23, 11:04pm

Fri Oct 23, 10:04pm

Fri Oct 23, 9:04pm

Fri Oct 23, 7:04pm

Fri Oct 23, 6:04pm

Fri Oct 23, 5:05pm

Fri Oct 23, 4:04pm

Fri Oct 23, 3:04pm

Fri Oct 23, 2:05pm

Fri Oct 23, 1:04pm

Fri Oct 23, 12:04pm

Fri Oct 23, 11:04am

Fri Oct 23, 10:04am

Fri Oct 23, 9:04am

Fri Oct 23, 8:04am

Fri Oct 23, 7:04am

Fri Oct 23, 6:04am

Fri Oct 23, 5:04am

Fri Oct 23, 4:04am

Fri Oct 23, 3:04am

Fri Oct 23, 2:04am

Fri Oct 23, 1:04am

Fri Oct 23, 12:04am

Thu Oct 22, 11:04pm

Thu Oct 22, 10:04pm

Thu Oct 22, 9:05pm

Thu Oct 22, 8:04pm

Thu Oct 22, 7:05pm

Thu Oct 22, 6:04pm

Thu Oct 22, 5:04pm

Thu Oct 22, 4:05pm

Thu Oct 22, 3:04pm

Thu Oct 22, 2:05pm

Thu Oct 22, 1:04pm

Thu Oct 22, 12:04pm

Thu Oct 22, 11:04am

Thu Oct 22, 10:05am

Thu Oct 22, 9:04am

Thu Oct 22, 8:05am

Thu Oct 22, 7:04am

Thu Oct 22, 6:04am

Thu Oct 22, 5:04am

Thu Oct 22, 4:04am

Thu Oct 22, 3:04am

Thu Oct 22, 2:04am

Thu Oct 22, 1:04am

Thu Oct 22, 12:04am

Wed Oct 21, 11:05pm

Wed Oct 21, 10:04pm

Wed Oct 21, 9:04pm

Wed Oct 21, 8:04pm

Wed Oct 21, 7:04pm

Wed Oct 21, 6:04pm

Wed Oct 21, 5:05pm

Wed Oct 21, 4:04pm

Wed Oct 21, 3:04pm

Wed Oct 21, 2:05pm

Wed Oct 21, 1:04pm

Wed Oct 21, 12:04pm

Wed Oct 21, 11:04am

Wed Oct 21, 10:04am

Wed Oct 21, 9:04am

Wed Oct 21, 8:04am

Wed Oct 21, 7:04am

Wed Oct 21, 6:04am

Wed Oct 21, 5:04am

Wed Oct 21, 4:04am

Wed Oct 21, 3:04am

Wed Oct 21, 2:04am

Wed Oct 21, 1:04am

Wed Oct 21, 12:04am

Tue Oct 20, 11:05pm

Tue Oct 20, 10:04pm

Tue Oct 20, 9:04pm

Tue Oct 20, 8:05pm

Tue Oct 20, 7:04pm

Tue Oct 20, 6:04pm

Tue Oct 20, 5:05pm

Tue Oct 20, 4:04pm

Tue Oct 20, 3:05pm

Tue Oct 20, 2:07pm

Tue Oct 20, 1:04pm

Tue Oct 20, 12:04pm

Tue Oct 20, 11:04am

Tue Oct 20, 10:05am

Tue Oct 20, 9:04am

Tue Oct 20, 8:04am

Tue Oct 20, 7:04am

Tue Oct 20, 6:04am

Tue Oct 20, 5:04am

Tue Oct 20, 4:04am

Tue Oct 20, 3:04am

Tue Oct 20, 2:04am

Tue Oct 20, 1:04am

Tue Oct 20, 12:04am

Mon Oct 19, 11:04pm

Mon Oct 19, 10:04pm

Mon Oct 19, 9:04pm

Mon Oct 19, 8:04pm

Mon Oct 19, 7:04pm

Mon Oct 19, 6:04pm

Mon Oct 19, 5:04pm

Mon Oct 19, 4:04pm

Mon Oct 19, 3:04pm

Mon Oct 19, 2:04pm

Mon Oct 19, 1:05pm

Mon Oct 19, 12:04pm

Mon Oct 19, 11:04am

Mon Oct 19, 10:04am

Mon Oct 19, 9:04am

Mon Oct 19, 8:04am

Mon Oct 19, 7:04am

Mon Oct 19, 6:04am

Mon Oct 19, 5:04am

Meta data:

ID: e8adbd22-b8ec-48a0-8949-733336dec0fb
Link: https://api.weather.gov/products/e8adbd22-b8ec-48a0-8949-733336dec0fb